Location: Frydek-Mistek
(49.6830°N, 18.3330°E)
Time: 01:28:26
(UTC+02:00)

ISS - Visible Passes

Search period start: 22 July 2018 00:00
Search period end: 01 August 2018 00:00
Orbit: 402 x 408 km, 51.6° (Epoch: 22 July)

Date Brightness Start Highest point End Pass type
(mag) Time Alt. Az. Time Alt. Az. Time Alt. Az.
22 Jul -3.3 00:32:40 10° W 00:35:56 59° N 00:39:11 10° E visible
22 Jul -4.0 02:09:14 10° WNW 02:12:32 76° SSW 02:15:50 10° ESE visible
22 Jul -2.4 03:46:15 10° W 03:48:38 19° SW 03:51:00 10° S visible
22 Jul -3.9 22:03:58 10° WSW 22:07:12 61° SSE 22:10:27 10° ENE visible
22 Jul -3.3 23:40:29 10° W 23:43:45 60° N 23:47:01 10° ENE visible
23 Jul -3.8 01:17:07 10° WNW 01:20:25 81° NNE 01:20:52 63° E visible
23 Jul -3.5 22:48:17 10° W 22:51:33 69° NNW 22:54:50 10° ENE visible
24 Jul -3.5 00:24:58 10° WNW 00:28:15 66° N 00:29:10 42° ENE visible
24 Jul -1.2 02:01:32 10° WNW 02:01:46 12° W 02:01:46 12° W visible
24 Jul -3.8 21:56:06 10° WSW 21:59:23 85° NNW 22:02:41 10° ENE visible
24 Jul -3.3 23:32:48 10° WNW 23:36:03 59° N 23:38:11 20° E visible
25 Jul -2.1 01:09:20 10° WNW 01:10:47 24° W 01:10:47 24° W visible
25 Jul -3.3 22:40:34 10° W 22:43:49 59° N 22:47:05 10° ENE visible
26 Jul -3.6 00:17:10 10° WNW 00:20:01 63° WNW 00:20:01 63° WNW visible
26 Jul -3.4 21:48:20 10° W 21:51:37 65° N 21:54:52 10° ENE visible
26 Jul -3.6 23:25:00 10° WNW 23:28:17 70° NNE 23:29:20 39° E visible
27 Jul -1.2 01:01:35 10° W 01:01:57 12° W 01:01:57 12° W visible
27 Jul -3.4 22:32:48 10° WNW 22:36:03 61° N 22:38:41 15° E visible
28 Jul -2.5 00:09:20 10° WNW 00:11:19 32° W 00:11:19 32° W visible
28 Jul -3.2 21:40:33 10° W 21:43:47 58° N 21:47:03 10° E visible
28 Jul -4.0 23:17:07 10° WNW 23:20:25 83° SSW 23:20:44 70° SE visible
29 Jul -3.7 22:24:55 10° WNW 22:28:12 76° NNE 22:30:09 22° E visible
30 Jul -1.7 00:01:33 10° W 00:02:47 19° W 00:02:47 19° W visible
30 Jul -3.4 21:32:41 10° WNW 21:35:56 63° N 21:39:12 10° E visible
30 Jul -3.5 23:09:13 10° WNW 23:12:14 49° SW 23:12:14 49° SW visible
31 Jul -3.9 22:16:57 10° WNW 22:20:14 74° SSW 22:21:42 30° ESE visible
31 Jul -1.1 23:54:01 10° W 23:54:20 11° W 23:54:20 11° W visible
